When you browse on this site, cookies collect data to enhance your experience and personalize the content and advertising you see.
Visit our Privacy Policy to learn more. By continuing to use the site, you agree to this use of cookies and data.
  • In Latvia
  • List of Countries
  • For 7 days
  • Water Temperature
  • Satellite Maps
  • Weather Map
  • Weather Widgets
  • user-avatar
    Login

    Hourly Weather Skrunda

    Today, 19 January, Saturday

    Time Temperature Precipitation Wind Pressure Humidity
    00:00 -4°C° 0 mm 3 mps 753 mmHg 81%
    01:00 -4°C° 0 mm 2 mps 754 mmHg 86%
    02:00 -4°C° 0 mm 2 mps 754 mmHg 86%
    03:00 -4°C° 0 mm 2 mps 754 mmHg 86%
    04:00 -4°C° 0 mm 2 mps 754 mmHg 86%
    05:00 -4°C° 0 mm 2 mps 755 mmHg 87%
    06:00 -4°C° 0 mm 2 mps 755 mmHg 87%
    07:00 -5°C° 0 mm 2 mps 755 mmHg 88%
    08:00 -4°C° 0 mm 2 mps 756 mmHg 85%
    09:00 -3°C° 0 mm 2 mps 756 mmHg 83%
    10:00 -2°C° 0 mm 2 mps 756 mmHg 80%
    11:00 -2°C° 0 mm 3 mps 756 mmHg 78%
    12:00 -1°C° 0 mm 3 mps 756 mmHg 76%
    13:00 0°C° 0 mm 3 mps 757 mmHg 74%
    14:00 -1°C° 0 mm 3 mps 756 mmHg 75%
    15:00 -1°C° 0 mm 3 mps 756 mmHg 76%
    16:00 -3°C° 0 mm 4 mps 755 mmHg 77%
    17:00 -2°C° 0 mm 4 mps 755 mmHg 79%
    18:00 -1°C° 0 mm 5 mps 755 mmHg 81%
    19:00 0°C° 0 mm 5 mps 755 mmHg 82%
    20:00 -1°C° 0 mm 5 mps 755 mmHg 82%
    21:00 -1°C° 0 mm 5 mps 755 mmHg 83%
    22:00 -1°C° 0 mm 4 mps 755 mmHg 83%
    23:00 -1°C° 0.2 mm 4 mps 755 mmHg 83%

    Tomorrow, 20 January, Sunday

    Time Temperature Precipitation Wind Pressure Humidity
    00:00 -1°C° 0.2 mm 5 mps 755 mmHg 83%
    01:00 -1°C° 0.2 mm 5 mps 755 mmHg 84%
    02:00 -1°C° 0.4 mm 4 mps 755 mmHg 83%
    03:00 0°C° 0.4 mm 3 mps 755 mmHg 82%
    04:00 -1°C° 0.4 mm 3 mps 755 mmHg 80%
    05:00 -2°C° 0 mm 2 mps 755 mmHg 79%
    06:00 -3°C° 0 mm 2 mps 755 mmHg 78%
    07:00 -3°C° 0 mm 2 mps 755 mmHg 77%
    08:00 -3°C° 0 mm 2 mps 755 mmHg 76%
    09:00 -3°C° 0 mm 2 mps 756 mmHg 75%
    10:00 -3°C° 0 mm 2 mps 756 mmHg 75%
    11:00 -2°C° 0 mm 2 mps 756 mmHg 73%
    12:00 -2°C° 0 mm 2 mps 757 mmHg 71%
    13:00 -1°C° 0 mm 3 mps 757 mmHg 69%
    14:00 -2°C° 0 mm 2 mps 757 mmHg 73%
    15:00 -3°C° 0 mm 2 mps 757 mmHg 77%
    16:00 -4°C° 0 mm 2 mps 758 mmHg 81%
    17:00 -5°C° 0 mm 2 mps 758 mmHg 83%
    18:00 -5°C° 0 mm 2 mps 758 mmHg 84%
    19:00 -5°C° 0 mm 2 mps 759 mmHg 86%
    20:00 -5°C° 0 mm 2 mps 759 mmHg 86%
    21:00 -5°C° 0 mm 2 mps 759 mmHg 86%
    22:00 -5°C° 0 mm 2 mps 759 mmHg 87%
    23:00 -5°C° 0 mm 2 mps 759 mmHg 86%

    Day after tomorrow, 21 January, Monday

    Time Temperature Precipitation Wind Pressure Humidity
    00:00 -5°C° 0 mm 2 mps 760 mmHg 86%
    01:00 -5°C° 0 mm 2 mps 760 mmHg 86%
    02:00 -5°C° 0 mm 2 mps 760 mmHg 86%
    03:00 -5°C° 0 mm 2 mps 759 mmHg 85%
    04:00 -5°C° 0 mm 2 mps 759 mmHg 85%
    05:00 -5°C° 0 mm 2 mps 759 mmHg 84%
    06:00 -6°C° 0 mm 2 mps 759 mmHg 84%
    07:00 -6°C° 0 mm 2 mps 759 mmHg 83%
    08:00 -5°C° 0 mm 2 mps 759 mmHg 82%
    09:00 -4°C° 0 mm 2 mps 759 mmHg 80%
    10:00 -4°C° 0 mm 2 mps 758 mmHg 79%
    11:00 -3°C° 0 mm 2 mps 758 mmHg 77%
    12:00 -2°C° 0 mm 2 mps 757 mmHg 76%
    13:00 -1°C° 0 mm 3 mps 757 mmHg 75%
    14:00 -1°C° 0.2 mm 3 mps 756 mmHg 81%
    15:00 -1°C° 0.2 mm 3 mps 756 mmHg 86%
    16:00 -1°C° 0.2 mm 3 mps 755 mmHg 92%
    17:00 -1°C° 0.1 mm 3 mps 755 mmHg 92%
    18:00 -1°C° 0.1 mm 3 mps 754 mmHg 92%
    19:00 -1°C° 0.1 mm 3 mps 754 mmHg 92%
    20:00 -1°C° 0.5 mm 3 mps 753 mmHg 92%
    21:00 -1°C° 0.5 mm 3 mps 753 mmHg 92%
    22:00 0°C° 0.5 mm 3 mps 753 mmHg 93%
    23:00 -1°C° 0.2 mm 3 mps 753 mmHg 92%

    22 January, Tuesday

    Time Temperature Precipitation Wind Pressure Humidity
    00:00 -2°C° 0.2 mm 3 mps 753 mmHg 92%
    01:00 -2°C° 0.2 mm 3 mps 753 mmHg 91%
    02:00 -4°C° 0.2 mm 3 mps 753 mmHg 92%
    03:00 -3°C° 0.2 mm 2 mps 753 mmHg 93%
    04:00 -3°C° 0.2 mm 2 mps 753 mmHg 93%
    05:00 -5°C° 0.1 mm 3 mps 753 mmHg 91%
    06:00 -5°C° 0.1 mm 3 mps 754 mmHg 89%
    07:00 -7°C° 0.1 mm 4 mps 754 mmHg 88%
    08:00 -7°C° 0 mm 4 mps 754 mmHg 87%
    09:00 -6°C° 0 mm 3 mps 755 mmHg 86%
    10:00 -7°C° 0 mm 3 mps 755 mmHg 85%
    11:00 -7°C° 0 mm 3 mps 755 mmHg 84%
    12:00 -7°C° 0 mm 3 mps 756 mmHg 83%
    13:00 -7°C° 0 mm 3 mps 756 mmHg 82%
    14:00 -7°C° 0 mm 2 mps 756 mmHg 85%
    15:00 -8°C° 0 mm 2 mps 756 mmHg 88%
    16:00 -9°C° 0 mm 2 mps 756 mmHg 91%
    17:00 -9°C° 0 mm 1 mps 756 mmHg 91%
    18:00 -9°C° 0 mm 1 mps 757 mmHg 91%
    19:00 -10°C° 0 mm 1 mps 757 mmHg 92%
    20:00 -10°C° 0 mm 1 mps 757 mmHg 91%
    21:00 -10°C° 0 mm 1 mps 757 mmHg 91%
    22:00 -10°C° 0 mm 1 mps 757 mmHg 91%
    23:00 -11°C° 0 mm 1 mps 757 mmHg 91%

    23 January, Wednesday

    Time Temperature Precipitation Wind Pressure Humidity
    00:00 -11°C° 0 mm 1 mps 757 mmHg 91%
    01:00 -11°C° 0 mm 1 mps 757 mmHg 91%
    02:00 -11°C° 0 mm 1 mps 757 mmHg 91%
    03:00 -11°C° 0 mm 1 mps 757 mmHg 90%
    04:00 -12°C° 0 mm 1 mps 757 mmHg 90%
    05:00 -12°C° 0 mm 1 mps 757 mmHg 88%
    06:00 -12°C° 0 mm 1 mps 758 mmHg 87%
    07:00 -12°C° 0 mm 1 mps 758 mmHg 86%
    08:00 -11°C° 0 mm 1 mps 758 mmHg 83%
    09:00 -10°C° 0 mm 1 mps 758 mmHg 80%
    10:00 -10°C° 0 mm 1 mps 758 mmHg 77%
    11:00 -9°C° 0 mm 1 mps 758 mmHg 76%
    12:00 -8°C° 0 mm 1 mps 758 mmHg 75%
    13:00 -7°C° 0 mm 1 mps 758 mmHg 74%
    14:00 -8°C° 0 mm 1 mps 758 mmHg 78%
    15:00 -9°C° 0 mm 1 mps 758 mmHg 82%
    16:00 -10°C° 0 mm 1 mps 758 mmHg 86%
    17:00 -10°C° 0 mm 1 mps 758 mmHg 87%
    18:00 -12°C° 0 mm 2 mps 758 mmHg 87%
    19:00 -13°C° 0 mm 2 mps 758 mmHg 88%
    20:00 -12°C° 0 mm 2 mps 758 mmHg 89%
    21:00 -12°C° 0 mm 2 mps 758 mmHg 90%
    22:00 -12°C° 0 mm 2 mps 758 mmHg 91%
    23:00 -10°C° 0 mm 2 mps 758 mmHg 92%

    24 January, Thursday

    Time Temperature Precipitation Wind Pressure Humidity
    00:00 -10°C° 0 mm 3 mps 758 mmHg 93%
    01:00 -9°C° 0 mm 3 mps 758 mmHg 94%
    02:00 -8°C° 0.2 mm 3 mps 758 mmHg 94%
    03:00 -7°C° 0.2 mm 2 mps 758 mmHg 94%
    04:00 -6°C° 0.2 mm 2 mps 758 mmHg 94%
    05:00 -7°C° 0 mm 2 mps 759 mmHg 93%
    06:00 -8°C° 0 mm 2 mps 759 mmHg 91%
    07:00 -9°C° 0 mm 2 mps 759 mmHg 89%
    08:00 -8°C° 0 mm 2 mps 760 mmHg 86%
    09:00 -8°C° 0 mm 2 mps 760 mmHg 84%
    10:00 -7°C° 0 mm 1 mps 761 mmHg 81%
    11:00 -7°C° 0 mm 1 mps 761 mmHg 79%
    12:00 -6°C° 0 mm 1 mps 761 mmHg 76%
    13:00 -4°C° 0 mm 1 mps 761 mmHg 73%
    14:00 -6°C° 0 mm 1 mps 761 mmHg 79%
    15:00 -7°C° 0 mm 1 mps 762 mmHg 85%
    16:00 -7°C° 0 mm 1 mps 762 mmHg 90%
    17:00 -8°C° 0 mm 1 mps 763 mmHg 91%
    18:00 -10°C° 0 mm 2 mps 763 mmHg 91%
    19:00 -10°C° 0 mm 2 mps 763 mmHg 91%
    20:00 -12°C° 0 mm 2 mps 764 mmHg 91%
    21:00 -12°C° 0 mm 2 mps 764 mmHg 91%
    22:00 -13°C° 0 mm 2 mps 765 mmHg 92%
    23:00 -13°C° 0 mm 2 mps 765 mmHg 92%
    Show more